SCP
-0 -0 -0 0 0 -0 -0 -0 -0 -0 -0 -0 -0 -0 -0 0 0 0 0 0 0 0 0 0 0 0 0 0 0 0 0 0 0 0 0 0 0 0 0 -0 -0 0 0 0 0 0 0 0 0 0 0 0 0 0
-0 -0 -0 -0 0 -0 -0 -0 -0 -0 -0 -0 -0 -0 0 0 0 0 0 0 0 0 0 0 0 0 0 0 0 0 0 0 0 0 0 0 0 0 0 0 0 0 0 -0 0 -0 -0 0 0 0 0 0 0 0
-0 -0 -0 -0 0 -0 -0 -0 -0 -0 -0 -0 -0 -0 0 0 0 0 0 0 0 0 0 0 0 0 0 0 0 0 0 0 0 0 0 0 0 0 0 0 0 0 0 0 0 -0 0 0 0 0 -0 0 -0 0
-0 -0 -0 -0 0 -0 -0 -0 -0 -0 -0 -0 -0 -0 0 0 0 0 0 0 0 0 0 0 0 -0 0 0 0 0 0 0 0 0 0 0 0 0 0 0 0 0 0 0 0 0 0 0 0 0 0 0 0 -0
-0 -0 -0 -0 -0 -0 -0 -0 -0 -0 -0 -0 -0 -0 0 0 0 0 0 0 0 0 0 0 0 0 -0 0 0 0 0 0 0 0 0 0 0 0 0 0 0 0 0 0 0 0 0 0 0 0 0 0 -0 -0
0 -0 -0 -0 -0 -0 -0 -0 -0 -0 -0 -0 -0 0 0 0 0 0 0 0 0 0 0 0 0 0 0 0 0 0 0 0 0 0 0 0 0 0 0 0 0 0 0 0 0 0 0 0 0 -0 0 0 0 0
0 -0 -0 -0 -0 -0 -0 -0 -0 -0 -0 -0 -0 0 0 0 0 0 0 0 0 0 0 0 0 0 0 0 0 0 0 0 0 0 0 0 0 0 0 0 0 0 0 0 0 0 0 -0 -0 -0 0 0 0 0
0 0 -0 -0 -0 -0 -0 -0 -0 -0 -0 -0 -0 0 0 0 0 0 0 0 0 0 0 0 0 0 0 0 0 0 0 0 0 0 0 0 0 0 0 0 0 0 0 0 0 0 0 0 0 0 0 0 0 0
0 0 -0 -0 -0 -0 -0 -0 -0 -0 -0 -0 0 0 0 0 0 0 -0 0 0 0 0 0 0 0 0 0 0 0 0 0 0 0 0 0 0 0 0 0 0 0 0 0 0 0 0 0 0 0 0 0 0 0
0 0 -0 -0 -0 0 0 -0 -0 -0 -0 0 0 0 0 0 0 0 0 0 0 0 0 0 0 0 0 0 0 0 0 0 0 0 0 0 0 0 0 0 0 0 0 0 0 0 0 0 0 0 0 0 0 0
-0 -0 0 -0 -0 0 0 -0 -0 -0 0 0 0 0 0 -0 0 0 0 0 0 0 0 0 0 0 0 0 0 0 0 0 0 0 0 0 0 0 0 0 0 0 0 0 0 0 0 0 0 0 0 0 0 0
-0 -0 -0 -0 -0 0 -0 -0 -0 0 0 0 0 0 0 0 0 0 0 0 0 0 0 0 0 0 0 0 0 0 0 0 0 0 0 0 0 0 0 0 0 0 0 0 0 0 0 0 0 0 0 0 0 0
-0 -0 -0 -0 0 -0 -0 -0 0 0 0 0 0 0 0 0 0 0 0 0 0 0 0 0 0 0 0 0 0 0 0 0 0 0 0 0 0 0 0 0 0 0 0 0 0 0 0 0 0 0 0 0 0 0
-0 -0 -0 -0 -0 -0 0 0 0 0 0 0 0 0 0 0 0 0 0 0 0 0 0 0 0 0 0 0 0 0 0 0 0 0 0 0 0 0 0 0 0 0 0 0 0 0 -0 0 0 0 0 0 0 0
-0 -0 -0 0 0 0 -0 0 0 0 0 0 0 0 0 0 0 0 0 0 0 0 0 0 0 0 0 0 0 0 0 0 0 0 0 0 0 0 0 0 0 0 0 0 -0 0 0 0 0 0 0 0 0 0
-0 -0 0 0 0 -0 -0 0 0 0 0 0 0 0 0 0 0 0 0 0 0 0 0 0 0 0 0 0 0 0 0 0 0 0 0 0 0 0 0 0 0 0 0 0 -0 -0 0 0 0 0 0 0 0 0
-0 0 0 -0 -0 -0 0 0 0 0 0 0 0 0 0 0 0 0 0 0 0 0 0 0 0 0 0 0 0 0 0 0 0 0 0 0 0 0 0 0 0 0 0 0 0 0 0 0 0 0 0 0 0 0
0 0 -0 -0 -0 0 0 0 0 0 0 0 0 0 0 0 0 0 0 0 0 0 0 0 0 0 0 0 0 0 0 0 0 0 0 0 0 0 0 0 0 0 0 0 0 0 0 0 0 0 0 0 0 0
0 0 -0 0 0 0 0 0 0 0 0 0 0 0 0 0 0 0 0 0 0 0 0 0 0 0 0 0 0 0 0 0 0 0 0 0 0 0 0 0 0 -0 0 0 0 0 0 0 0 0 0 0 0 0
-0 0 0 0 0 0 0 0 0 0 0 0 0 0 0 0 0 0 0 0 0 0 0 0 0 0 0 0 0 0 0 0 0 0 0 0 0 0 0 0 0 0 0 0 0 0 0 0 0 0 0 0 0 0
0 0 0 0 0 0 0 0 0 0 0 0 0 0 0 0 0 0 0 0 0 0 0 0 0 0 0 0 0 0 0 0 0 0 0 0 0 0 0 0 0 0 0 0 0 -0 -0 0 0 0 0 0 0 0
0 0 0 0 0 0 0 0 0 0 0 0 0 0 0 0 0 0 0 0 0 0 0 0 0 0 0 0 0 0 0 0 0 0 0 0 0 0 0 0 0 0 0 0 0 -0 -0 0 0 0 0 0 0 0
0 0 0 0 0 0 0 0 0 0 0 0 0 0 0 0 0 0 0 0 0 0 0 0 0 0 0 0 0 0 0 0 0 0 0 0 0 0 0 0 0 0 0 0 -0 -0 -0 -0 -0 -0 -0 -0 0 0
0 0 0 0 0 0 0 0 0 0 0 0 0 0 0 0 0 0 0 0 0 0 0 0 0 0 0 0 0 0 0 0 0 0 0 0 0 -0 0 0 0 0 0 0 0 0 -0 -0 -0 -0 -0 -0 0 0
0 0 0 0 0 0 0 0 0 0 0 0 0 0 0 0 0 0 0 0 0 0 0 0 0 0 0 0 0 0 0 0 0 0 0 0 0 0 0 0 0 0 0 0 0 0 0 0 -0 -0 -0 0 0 0
0 0 0 0 0 0 0 0 0 0 0 0 0 0 0 0 0 0 0 0 0 0 0 0 0 0 0 0 0 0 0 0 -0 -0 0 0 0 0 0 0 0 0 0 0 0 0 0 0 0 0 0 0 0 0
0 0 0 0 0 0 0 0 0 0 0 0 0 0 0 0 0 0 0 0 0 0 0 0 -0 -0 -0 0 0 0 0 0 0 0 0 0 0 0 0 0 0 0 0 0 0 0 0 0 0 0 0 0 0 0
0 0 0 0 0 0 0 0 0 0 0 0 0 0 0 0 0 0 0 0 0 0 0 0 0 0 0 0 0 0 0 0 0 0 0 0 0 0 0 0 0 0 0 0 0 0 0 0 0 0 0 0 0 0
0 0 0 0 0 0 0 0 0 0 0 0 0 0 0 0 0 0 0 0 0 0 0 0 0 0 0 0 0 0 0 0 0 0 0 0 0 0 0 -0 -0 0 0 0 0 0 0 0 0 0 0 0 0 0
0 0 0 0 0 0 0 0 0 0 0 0 0 0 0 0 0 0 0 0 0 0 0 0 0 0 0 0 0 0 0 0 -0 -0 -0 -0 0 0 -0 0 0 -0 -0 0 0 0 0 0 0 0 0 0 0 0
0 0 0 0 0 0 0 0 0 0 0 0 0 0 0 0 0 0 0 0 0 0 0 0 0 0 0 0 0 0 0 0 0 0 0 -0 -0 -0 -0 -0 -0 0 0 0 0 0 0 0 0 0 0 0 0 0
0 0 0 0 0 0 0 0 0 0 0 0 0 0 0 0 0 0 0 0 0 0 0 0 0 0 0 0 0 0 0 0 0 0 -0 -0 -0 0 0 0 0 0 0 0 0 0 0 0 0 0 0 0 0 0
0 0 0 0 0 0 0 0 0 0 0 0 0 0 0 0 0 0 0 0 0 0 0 0 0 0 0 0 0 0 0 0 0 -0 0 -0 -0 0 0 0 0 0 0 0 0 0 0 0 0 0 0 0 0 0
Wind_Speed_500mb
50 51 54 55 51 47 44 40 33 30 30 30 29 26 25 18 22 22 29 19 14 3 3 2 6 10 10 10 1 17 7 18 11 11 6 5 5 5 6 8 8 2 2 3 5 6 6 17 5 3 1 16 16 25
50 52 54 55 52 49 45 42 38 30 28 28 27 26 22 18 17 20 19 31 11 2 0 8 9 5 8 14 14 7 1 4 2 6 1 0 5 5 2 6 8 6 3 5 7 8 11 19 10 20 13 17 8 12
50 51 53 55 53 50 49 45 40 34 28 27 27 26 23 20 16 17 17 21 24 9 8 10 9 7 13 12 16 8 6 5 6 4 7 4 2 5 1 5 6 7 5 7 5 6 9 10 9 8 11 11 7 7
52 51 53 55 55 53 50 47 41 37 32 28 27 26 24 21 19 15 15 9 21 12 2 7 14 17 14 19 17 21 29 25 14 8 6 5 4 12 7 7 6 7 5 7 1 2 5 7 10 6 6 6 13 10
53 53 54 55 56 55 51 46 42 40 36 31 29 27 25 23 17 16 8 5 14 12 6 15 17 6 9 17 21 25 29 30 30 7 6 7 6 6 1 3 4 4 9 6 9 20 10 17 15 14 10 12 13 10
54 55 56 56 57 57 53 49 45 41 39 33 30 26 24 21 10 7 4 9 13 22 6 5 10 12 15 23 31 34 40 37 12 10 10 8 5 2 5 5 10 10 11 12 6 18 16 18 18 19 15 12 13 16
53 57 58 57 58 58 54 51 50 44 41 36 31 22 16 14 7 8 4 12 17 21 5 9 11 7 12 16 19 21 24 23 15 7 5 3 6 3 4 5 15 20 13 13 19 21 17 23 18 18 17 17 17 17
53 58 59 60 60 59 55 53 55 49 44 37 31 20 14 11 10 4 8 16 21 11 6 2 9 9 4 10 14 17 15 10 3 2 2 1 7 4 3 13 30 26 19 20 24 22 18 20 19 21 23 20 15 11
52 58 59 60 61 59 53 56 59 56 47 38 27 14 14 8 7 8 26 32 22 12 5 4 4 7 8 16 20 16 5 3 3 3 2 2 2 4 12 21 32 34 27 28 21 27 21 17 17 22 23 24 24 25
52 56 58 60 61 53 50 62 63 58 51 36 16 4 4 6 15 29 8 3 4 7 9 8 6 6 9 9 9 8 5 0 3 5 2 5 6 18 13 15 22 34 34 29 28 23 23 21 17 13 9 7 9 5
50 53 55 60 59 46 54 62 65 61 52 37 20 5 19 20 8 4 5 5 6 4 9 9 12 11 15 6 8 5 2 1 3 7 3 4 7 8 6 7 12 36 34 31 24 20 16 14 11 7 6 9 12 10
49 50 54 58 55 51 60 61 61 55 45 44 34 33 14 3 3 0 4 5 3 7 6 8 9 19 11 8 3 2 1 2 6 1 5 6 7 21 8 11 20 28 32 30 20 18 16 14 13 14 13 11 12 14
48 50 54 57 55 62 63 58 50 49 47 32 8 6 4 3 5 6 5 4 4 8 10 7 14 9 4 4 4 5 5 3 2 5 5 8 13 17 21 18 21 23 33 30 24 20 20 19 18 20 20 18 16 12
49 49 52 51 63 66 62 55 48 42 25 8 6 10 7 6 8 9 9 9 16 15 12 10 9 2 4 5 1 3 3 7 4 5 8 6 11 21 24 23 22 29 32 32 29 25 23 28 17 19 20 26 27 24
51 49 48 57 62 58 60 57 46 34 9 8 7 7 10 17 12 17 16 15 11 16 11 6 3 2 4 3 2 5 2 6 9 9 7 18 26 30 35 38 30 37 36 35 34 30 23 21 20 18 23 28 25 24
54 54 52 62 66 61 67 66 41 12 8 9 13 8 16 10 17 23 35 31 17 21 8 4 3 2 2 4 2 8 3 9 8 10 26 38 42 40 46 40 49 36 34 41 41 36 31 23 22 17 18 18 17 25
55 54 57 62 69 67 69 52 11 7 9 9 15 24 39 41 31 36 37 34 21 22 6 7 6 6 5 3 5 8 10 8 22 26 33 29 36 38 37 41 32 25 24 24 36 35 34 25 24 22 23 18 10 14
60 59 56 57 66 74 61 12 8 9 13 19 17 30 29 30 33 35 39 34 26 24 14 10 12 8 7 7 7 10 29 34 34 37 35 28 33 31 30 29 33 43 30 21 18 32 36 44 44 34 26 22 21 23
65 65 57 49 49 52 16 7 7 11 14 22 32 40 39 40 40 35 36 32 31 26 11 16 7 8 9 22 28 41 38 39 36 32 39 32 30 30 29 28 27 17 25 19 24 38 38 35 36 34 31 28 26 22
58 55 44 40 40 19 12 11 8 14 12 14 36 39 37 38 39 34 29 22 24 18 10 8 15 21 32 41 38 39 38 31 34 33 38 33 29 28 21 21 26 24 31 38 39 41 44 38 34 32 40 47 39 34
59 52 52 50 46 17 15 10 11 17 22 15 31 35 37 41 41 38 34 25 24 11 13 33 51 51 21 35 41 32 30 31 32 27 26 19 12 28 36 34 36 35 42 44 53 49 45 45 36 29 25 26 30 35
47 49 60 46 11 10 14 16 15 19 16 23 30 11 15 15 17 26 30 15 10 17 23 36 43 39 27 29 21 24 28 30 27 29 30 30 31 28 37 26 32 43 44 45 34 37 39 30 27 34 32 30 30 35
41 57 31 10 10 11 14 13 12 9 7 8 9 9 8 27 14 39 7 9 10 34 30 33 23 15 21 20 26 29 22 21 28 31 34 31 29 28 32 29 29 33 31 31 32 43 37 27 32 36 36 41 40 43
44 13 9 9 13 12 10 9 11 10 9 8 5 9 10 10 28 7 4 8 22 26 31 37 33 35 35 36 45 47 34 23 23 31 32 37 42 40 34 31 27 23 21 12 19 28 33 35 39 44 41 44 45 49
12 11 11 13 12 8 8 8 8 5 6 6 6 9 16 16 5 6 2 13 29 35 38 31 29 28 28 32 36 28 19 16 29 43 39 40 43 36 36 37 39 36 32 29 30 29 30 35 40 46 50 54 53 54
9 11 14 10 8 9 8 7 5 5 11 8 9 12 10 7 1 3 4 28 41 36 26 31 38 60 36 34 38 35 33 36 42 47 53 44 40 41 39 36 35 27 16 13 22 19 19 23 28 33 51 48 44 45
10 13 15 18 14 16 13 13 27 13 5 7 8 15 8 7 4 6 12 37 27 20 30 29 27 27 31 33 37 36 35 34 34 40 41 34 26 22 19 18 16 6 9 6 6 9 15 23 23 24 21 16 14 13
19 14 13 6 12 20 11 8 7 7 6 1 3 3 7 6 3 9 20 23 19 19 16 22 29 28 29 24 24 29 31 33 28 29 30 17 16 24 24 23 26 30 26 24 25 27 26 30 32 34 25 30 22 30
17 17 15 24 21 13 9 10 10 12 19 8 10 5 5 6 11 16 7 14 25 27 25 30 28 25 23 25 33 40 42 43 45 43 35 29 28 24 29 32 26 21 21 25 22 18 18 13 10 8 15 24 31 30
17 22 14 11 8 8 10 19 28 25 18 15 7 11 13 7 4 5 9 18 24 24 22 24 27 32 36 42 48 52 48 43 41 38 34 25 21 25 30 29 25 27 20 14 9 5 8 8 21 30 37 34 29 31
10 11 12 14 12 28 27 22 22 20 23 28 26 20 17 17 14 3 11 16 16 15 17 22 25 30 32 38 44 48 49 43 44 30 17 14 17 20 24 22 17 12 4 5 8 10 15 27 31 31 28 27 27 29
13 18 13 8 11 18 13 13 17 17 14 6 12 13 14 11 9 4 8 12 6 14 21 24 23 22 25 26 26 34 37 38 40 42 40 34 29 28 29 27 23 17 15 21 27 27 25 27 32 38 41 40 35 31
25 29 27 12 6 5 5 8 6 6 5 3 5 14 12 10 8 8 5 10 6 9 12 19 18 15 14 24 30 35 37 39 40 41 39 35 30 27 25 24 22 21 22 29 34 37 42 42 42 38 34 31 28 24
Wind_Direction_500mb
8 6 4 2 1 2 1 360 356 357 0 2 4 7 16 20 14 33 45 25 22 118 134 21 29 27 5 354 115 318 26 1 11 42 36 323 28 325 345 326 324 16 32 344 6 57 334 350 358 155 125 94 123 160
5 4 3 2 2 2 1 358 355 350 351 353 352 356 357 358 12 10 31 32 44 84 2 269 300 315 330 324 338 321 187 275 307 71 22 59 346 4 300 325 342 20 150 183 146 216 263 335 41 106 107 113 107 125
2 1 1 1 0 359 357 354 352 349 344 345 344 346 348 337 336 353 353 8 22 344 285 270 267 272 285 304 299 310 307 312 296 308 163 169 302 127 357 274 308 326 159 103 63 313 337 84 102 115 117 122 140 155
359 358 358 358 358 357 355 354 353 351 343 337 335 338 341 335 325 320 336 351 13 337 316 280 298 294 275 267 285 294 293 298 290 240 209 166 188 185 219 220 165 234 7 146 100 265 116 136 143 126 154 148 138 158
357 357 355 354 355 355 353 351 350 349 343 333 328 329 335 335 331 324 291 273 349 5 278 295 318 2 286 264 268 278 285 291 292 236 175 227 210 148 225 38 291 201 179 149 218 202 188 184 174 167 183 164 175 169
355 355 354 352 352 352 351 350 348 345 341 332 323 324 330 336 333 339 256 267 306 349 303 333 310 291 294 292 296 300 280 289 247 234 209 212 220 235 120 201 260 228 179 181 209 191 194 155 158 173 195 194 210 238
353 354 352 351 350 350 348 348 349 344 339 331 320 317 321 332 318 320 311 315 320 328 269 301 305 275 316 313 330 295 291 260 243 217 198 209 172 170 100 188 191 168 156 147 151 154 167 189 222 235 248 250 215 222
350 351 350 351 349 347 346 345 348 344 339 334 322 306 293 279 280 322 306 306 316 301 255 204 273 314 324 317 298 290 273 244 359 17 212 177 150 105 280 239 179 175 171 178 180 184 212 220 242 220 216 235 224 223
347 348 348 348 348 347 346 344 345 346 342 336 329 300 304 228 230 263 306 302 288 244 265 203 169 256 280 307 303 287 308 19 326 43 304 71 322 236 231 203 197 192 193 204 220 224 201 224 230 234 247 263 272 268
343 345 345 347 347 346 348 344 343 345 345 346 346 304 241 198 289 297 290 247 218 206 220 244 219 267 267 297 307 319 349 69 10 259 219 84 258 262 248 196 205 206 213 216 198 208 226 244 266 272 267 235 236 232
339 342 344 346 345 343 343 341 340 343 348 356 343 296 296 301 292 228 238 212 191 238 214 241 243 262 291 221 237 231 215 269 36 274 115 319 302 288 209 207 230 215 217 208 236 251 243 262 251 265 256 245 247 236
336 338 339 340 341 339 338 339 335 338 337 325 305 291 303 283 252 165 261 288 208 229 218 228 280 280 280 272 256 335 223 49 247 97 49 311 265 347 279 245 220 210 208 215 231 260 259 247 245 252 238 241 251 260
334 335 336 336 336 336 336 334 332 330 329 327 312 293 290 245 30 210 237 263 277 210 216 263 310 293 277 335 48 28 17 309 283 28 241 226 315 40 358 303 259 244 223 229 250 242 247 256 250 251 253 252 249 259
332 334 336 332 334 336 336 333 329 327 328 297 298 305 174 252 238 198 197 219 284 222 235 270 289 318 340 55 16 44 326 65 346 252 246 252 275 333 300 305 270 249 244 249 239 242 255 262 245 245 240 237 242 248
329 332 333 333 335 339 338 333 321 312 266 264 246 243 231 235 256 279 303 304 268 228 226 284 350 314 13 97 44 67 295 237 203 230 235 289 293 300 300 283 293 267 256 244 243 239 243 235 227 235 233 235 240 248
327 331 335 332 330 336 336 334 318 289 232 239 238 265 268 271 286 314 315 304 274 209 212 198 121 39 266 138 224 224 170 229 247 221 284 305 296 297 304 279 304 269 274 247 237 235 248 234 222 228 219 233 258 250
323 328 329 329 327 333 335 328 299 241 244 236 246 250 262 276 281 293 300 295 230 201 195 148 170 203 120 235 254 181 209 220 271 284 304 309 310 305 300 283 292 290 277 279 231 237 238 230 220 239 253 255 260 256
319 325 329 328 325 330 336 298 273 261 255 254 259 279 285 289 292 295 293 292 223 210 181 207 153 170 189 233 251 235 245 270 289 281 287 305 310 312 295 300 300 286 259 305 241 228 240 232 226 235 247 254 251 260
321 326 327 325 328 335 309 297 275 276 265 282 280 290 296 296 296 293 293 281 258 220 193 173 155 193 232 219 241 274 285 277 290 291 285 291 303 309 304 294 308 270 210 251 261 249 236 227 234 243 255 246 248 253
319 324 325 326 326 318 282 272 269 266 275 284 294 295 304 301 301 297 292 289 241 193 198 207 216 230 269 290 298 292 291 291 288 288 294 299 294 302 302 299 291 271 243 256 258 266 249 233 231 246 264 249 244 236
322 326 326 328 322 256 257 282 260 266 288 282 293 304 302 293 294 297 290 267 203 223 236 252 262 270 255 278 283 289 284 275 274 281 285 279 291 295 296 291 276 267 258 262 273 257 246 241 257 253 236 240 229 232
317 325 324 325 261 261 258 241 250 284 283 273 294 286 285 304 309 311 317 200 221 351 326 314 315 294 262 265 273 299 306 293 267 274 277 277 287 288 306 305 285 275 272 263 274 240 241 265 245 227 242 239 238 242
319 321 307 257 263 248 263 249 248 246 248 270 278 291 279 294 296 330 285 54 67 33 13 20 23 15 16 15 6 3 349 318 303 293 293 278 288 291 302 308 294 281 282 276 248 240 256 254 241 240 251 244 243 242
321 275 257 251 234 266 265 248 238 256 256 263 266 280 282 281 312 316 87 59 9 8 11 6 4 360 344 341 337 340 327 294 314 321 303 311 310 304 294 286 286 272 275 263 239 245 256 254 248 257 249 238 246 252
295 245 243 256 245 253 267 259 245 256 268 302 283 272 281 307 355 46 67 359 354 355 347 347 341 332 320 321 324 325 340 327 304 311 318 319 314 320 300 289 276 276 263 260 260 263 265 275 262 247 241 245 253 255
259 235 215 231 240 201 237 272 288 2 309 269 265 270 306 302 250 316 51 31 15 354 355 11 12 347 345 358 354 353 330 314 306 303 304 305 301 309 315 312 295 278 265 266 274 277 290 267 259 271 265 264 275 258
245 267 242 240 261 277 279 270 297 308 295 267 311 353 7 338 324 44 10 342 340 337 325 352 343 341 337 329 322 323 326 325 337 332 327 317 303 291 298 302 274 210 197 251 294 305 304 303 289 265 271 232 211 252
243 257 224 238 254 261 268 260 263 242 222 73 72 276 302 338 304 348 340 339 344 348 349 357 352 355 358 4 344 331 322 321 324 323 344 357 338 331 317 336 303 273 311 332 322 304 292 292 281 269 264 264 247 251
239 231 251 263 258 255 247 220 236 266 257 193 165 197 243 261 311 327 325 339 329 336 340 353 8 13 11 3 3 4 1 354 346 344 345 353 0 353 343 340 330 319 337 326 326 345 328 311 275 239 218 202 160 149
248 227 221 242 222 233 243 294 289 294 242 223 214 201 219 223 233 252 323 331 348 1 8 8 18 25 21 20 15 10 12 12 11 8 351 355 7 4 9 10 27 42 60 85 84 129 89 172 174 159 144 129 117 110
244 215 227 238 246 281 295 297 268 260 246 241 261 244 211 182 169 75 11 7 3 7 12 29 21 21 12 6 4 2 12 16 14 13 20 50 49 30 27 36 28 10 107 145 166 155 139 130 113 101 96 101 111 112
219 216 215 229 272 292 268 276 293 278 281 254 193 178 140 155 169 196 351 350 355 21 25 21 22 16 13 12 24 37 39 33 31 34 40 47 53 55 51 51 53 65 76 90 98 99 97 95 101 110 114 112 111 111
228 240 252 264 251 249 252 314 287 288 270 164 134 149 152 172 170 196 265 342 59 39 12 8 17 32 47 57 49 46 43 41 40 41 44 48 51 51 54 62 67 64 75 87 90 94 99 102 102 103 105 104 101 96
Wind_Speed_850mb
50 51 54 55 51 47 44 40 33 30 30 30 29 26 25 18 22 22 29 19 14 3 3 2 6 10 10 10 1 17 7 18 11 11 6 5 5 5 6 8 8 2 2 3 5 6 6 17 5 3 1 16 16 25
50 52 54 55 52 49 45 42 38 30 28 28 27 26 22 18 17 20 19 31 11 2 0 8 9 5 8 14 14 7 1 4 2 6 1 0 5 5 2 6 8 6 3 5 7 8 11 19 10 20 13 17 8 12
50 51 53 55 53 50 49 45 40 34 28 27 27 26 23 20 16 17 17 21 24 9 8 10 9 7 13 12 16 8 6 5 6 4 7 4 2 5 1 5 6 7 5 7 5 6 9 10 9 8 11 11 7 7
52 51 53 55 55 53 50 47 41 37 32 28 27 26 24 21 19 15 15 9 21 12 2 7 14 17 14 19 17 21 29 25 14 8 6 5 4 12 7 7 6 7 5 7 1 2 5 7 10 6 6 6 13 10
53 53 54 55 56 55 51 46 42 40 36 31 29 27 25 23 17 16 8 5 14 12 6 15 17 6 9 17 21 25 29 30 30 7 6 7 6 6 1 3 4 4 9 6 9 20 10 17 15 14 10 12 13 10
54 55 56 56 57 57 53 49 45 41 39 33 30 26 24 21 10 7 4 9 13 22 6 5 10 12 15 23 31 34 40 37 12 10 10 8 5 2 5 5 10 10 11 12 6 18 16 18 18 19 15 12 13 16
53 57 58 57 58 58 54 51 50 44 41 36 31 22 16 14 7 8 4 12 17 21 5 9 11 7 12 16 19 21 24 23 15 7 5 3 6 3 4 5 15 20 13 13 19 21 17 23 18 18 17 17 17 17
53 58 59 60 60 59 55 53 55 49 44 37 31 20 14 11 10 4 8 16 21 11 6 2 9 9 4 10 14 17 15 10 3 2 2 1 7 4 3 13 30 26 19 20 24 22 18 20 19 21 23 20 15 11
52 58 59 60 61 59 53 56 59 56 47 38 27 14 14 8 7 8 26 32 22 12 5 4 4 7 8 16 20 16 5 3 3 3 2 2 2 4 12 21 32 34 27 28 21 27 21 17 17 22 23 24 24 25
52 56 58 60 61 53 50 62 63 58 51 36 16 4 4 6 15 29 8 3 4 7 9 8 6 6 9 9 9 8 5 0 3 5 2 5 6 18 13 15 22 34 34 29 28 23 23 21 17 13 9 7 9 5
50 53 55 60 59 46 54 62 65 61 52 37 20 5 19 20 8 4 5 5 6 4 9 9 12 11 15 6 8 5 2 1 3 7 3 4 7 8 6 7 12 36 34 31 24 20 16 14 11 7 6 9 12 10
49 50 54 58 55 51 60 61 61 55 45 44 34 33 14 3 3 0 4 5 3 7 6 8 9 19 11 8 3 2 1 2 6 1 5 6 7 21 8 11 20 28 32 30 20 18 16 14 13 14 13 11 12 14
48 50 54 57 55 62 63 58 50 49 47 32 8 6 4 3 5 6 5 4 4 8 10 7 14 9 4 4 4 5 5 3 2 5 5 8 13 17 21 18 21 23 33 30 24 20 20 19 18 20 20 18 16 12
49 49 52 51 63 66 62 55 48 42 25 8 6 10 7 6 8 9 9 9 16 15 12 10 9 2 4 5 1 3 3 7 4 5 8 6 11 21 24 23 22 29 32 32 29 25 23 28 17 19 20 26 27 24
51 49 48 57 62 58 60 57 46 34 9 8 7 7 10 17 12 17 16 15 11 16 11 6 3 2 4 3 2 5 2 6 9 9 7 18 26 30 35 38 30 37 36 35 34 30 23 21 20 18 23 28 25 24
54 54 52 62 66 61 67 66 41 12 8 9 13 8 16 10 17 23 35 31 17 21 8 4 3 2 2 4 2 8 3 9 8 10 26 38 42 40 46 40 49 36 34 41 41 36 31 23 22 17 18 18 17 25
55 54 57 62 69 67 69 52 11 7 9 9 15 24 39 41 31 36 37 34 21 22 6 7 6 6 5 3 5 8 10 8 22 26 33 29 36 38 37 41 32 25 24 24 36 35 34 25 24 22 23 18 10 14
60 59 56 57 66 74 61 12 8 9 13 19 17 30 29 30 33 35 39 34 26 24 14 10 12 8 7 7 7 10 29 34 34 37 35 28 33 31 30 29 33 43 30 21 18 32 36 44 44 34 26 22 21 23
65 65 57 49 49 52 16 7 7 11 14 22 32 40 39 40 40 35 36 32 31 26 11 16 7 8 9 22 28 41 38 39 36 32 39 32 30 30 29 28 27 17 25 19 24 38 38 35 36 34 31 28 26 22
58 55 44 40 40 19 12 11 8 14 12 14 36 39 37 38 39 34 29 22 24 18 10 8 15 21 32 41 38 39 38 31 34 33 38 33 29 28 21 21 26 24 31 38 39 41 44 38 34 32 40 47 39 34
59 52 52 50 46 17 15 10 11 17 22 15 31 35 37 41 41 38 34 25 24 11 13 33 51 51 21 35 41 32 30 31 32 27 26 19 12 28 36 34 36 35 42 44 53 49 45 45 36 29 25 26 30 35
47 49 60 46 11 10 14 16 15 19 16 23 30 11 15 15 17 26 30 15 10 17 23 36 43 39 27 29 21 24 28 30 27 29 30 30 31 28 37 26 32 43 44 45 34 37 39 30 27 34 32 30 30 35
41 57 31 10 10 11 14 13 12 9 7 8 9 9 8 27 14 39 7 9 10 34 30 33 23 15 21 20 26 29 22 21 28 31 34 31 29 28 32 29 29 33 31 31 32 43 37 27 32 36 36 41 40 43
44 13 9 9 13 12 10 9 11 10 9 8 5 9 10 10 28 7 4 8 22 26 31 37 33 35 35 36 45 47 34 23 23 31 32 37 42 40 34 31 27 23 21 12 19 28 33 35 39 44 41 44 45 49
12 11 11 13 12 8 8 8 8 5 6 6 6 9 16 16 5 6 2 13 29 35 38 31 29 28 28 32 36 28 19 16 29 43 39 40 43 36 36 37 39 36 32 29 30 29 30 35 40 46 50 54 53 54
9 11 14 10 8 9 8 7 5 5 11 8 9 12 10 7 1 3 4 28 41 36 26 31 38 60 36 34 38 35 33 36 42 47 53 44 40 41 39 36 35 27 16 13 22 19 19 23 28 33 51 48 44 45
10 13 15 18 14 16 13 13 27 13 5 7 8 15 8 7 4 6 12 37 27 20 30 29 27 27 31 33 37 36 35 34 34 40 41 34 26 22 19 18 16 6 9 6 6 9 15 23 23 24 21 16 14 13
19 14 13 6 12 20 11 8 7 7 6 1 3 3 7 6 3 9 20 23 19 19 16 22 29 28 29 24 24 29 31 33 28 29 30 17 16 24 24 23 26 30 26 24 25 27 26 30 32 34 25 30 22 30
17 17 15 24 21 13 9 10 10 12 19 8 10 5 5 6 11 16 7 14 25 27 25 30 28 25 23 25 33 40 42 43 45 43 35 29 28 24 29 32 26 21 21 25 22 18 18 13 10 8 15 24 31 30
17 22 14 11 8 8 10 19 28 25 18 15 7 11 13 7 4 5 9 18 24 24 22 24 27 32 36 42 48 52 48 43 41 38 34 25 21 25 30 29 25 27 20 14 9 5 8 8 21 30 37 34 29 31
10 11 12 14 12 28 27 22 22 20 23 28 26 20 17 17 14 3 11 16 16 15 17 22 25 30 32 38 44 48 49 43 44 30 17 14 17 20 24 22 17 12 4 5 8 10 15 27 31 31 28 27 27 29
13 18 13 8 11 18 13 13 17 17 14 6 12 13 14 11 9 4 8 12 6 14 21 24 23 22 25 26 26 34 37 38 40 42 40 34 29 28 29 27 23 17 15 21 27 27 25 27 32 38 41 40 35 31
25 29 27 12 6 5 5 8 6 6 5 3 5 14 12 10 8 8 5 10 6 9 12 19 18 15 14 24 30 35 37 39 40 41 39 35 30 27 25 24 22 21 22 29 34 37 42 42 42 38 34 31 28 24
Wind_Direction_850mb
8 6 4 2 1 2 1 360 356 357 0 2 4 7 16 20 14 33 45 25 22 118 134 21 29 27 5 354 115 318 26 1 11 42 36 323 28 325 345 326 324 16 32 344 6 57 334 350 358 155 125 94 123 160
5 4 3 2 2 2 1 358 355 350 351 353 352 356 357 358 12 10 31 32 44 84 2 269 300 315 330 324 338 321 187 275 307 71 22 59 346 4 300 325 342 20 150 183 146 216 263 335 41 106 107 113 107 125
2 1 1 1 0 359 357 354 352 349 344 345 344 346 348 337 336 353 353 8 22 344 285 270 267 272 285 304 299 310 307 312 296 308 163 169 302 127 357 274 308 326 159 103 63 313 337 84 102 115 117 122 140 155
359 358 358 358 358 357 355 354 353 351 343 337 335 338 341 335 325 320 336 351 13 337 316 280 298 294 275 267 285 294 293 298 290 240 209 166 188 185 219 220 165 234 7 146 100 265 116 136 143 126 154 148 138 158
357 357 355 354 355 355 353 351 350 349 343 333 328 329 335 335 331 324 291 273 349 5 278 295 318 2 286 264 268 278 285 291 292 236 175 227 210 148 225 38 291 201 179 149 218 202 188 184 174 167 183 164 175 169
355 355 354 352 352 352 351 350 348 345 341 332 323 324 330 336 333 339 256 267 306 349 303 333 310 291 294 292 296 300 280 289 247 234 209 212 220 235 120 201 260 228 179 181 209 191 194 155 158 173 195 194 210 238
353 354 352 351 350 350 348 348 349 344 339 331 320 317 321 332 318 320 311 315 320 328 269 301 305 275 316 313 330 295 291 260 243 217 198 209 172 170 100 188 191 168 156 147 151 154 167 189 222 235 248 250 215 222
350 351 350 351 349 347 346 345 348 344 339 334 322 306 293 279 280 322 306 306 316 301 255 204 273 314 324 317 298 290 273 244 359 17 212 177 150 105 280 239 179 175 171 178 180 184 212 220 242 220 216 235 224 223
347 348 348 348 348 347 346 344 345 346 342 336 329 300 304 228 230 263 306 302 288 244 265 203 169 256 280 307 303 287 308 19 326 43 304 71 322 236 231 203 197 192 193 204 220 224 201 224 230 234 247 263 272 268
343 345 345 347 347 346 348 344 343 345 345 346 346 304 241 198 289 297 290 247 218 206 220 244 219 267 267 297 307 319 349 69 10 259 219 84 258 262 248 196 205 206 213 216 198 208 226 244 266 272 267 235 236 232
339 342 344 346 345 343 343 341 340 343 348 356 343 296 296 301 292 228 238 212 191 238 214 241 243 262 291 221 237 231 215 269 36 274 115 319 302 288 209 207 230 215 217 208 236 251 243 262 251 265 256 245 247 236
336 338 339 340 341 339 338 339 335 338 337 325 305 291 303 283 252 165 261 288 208 229 218 228 280 280 280 272 256 335 223 49 247 97 49 311 265 347 279 245 220 210 208 215 231 260 259 247 245 252 238 241 251 260
334 335 336 336 336 336 336 334 332 330 329 327 312 293 290 245 30 210 237 263 277 210 216 263 310 293 277 335 48 28 17 309 283 28 241 226 315 40 358 303 259 244 223 229 250 242 247 256 250 251 253 252 249 259
332 334 336 332 334 336 336 333 329 327 328 297 298 305 174 252 238 198 197 219 284 222 235 270 289 318 340 55 16 44 326 65 346 252 246 252 275 333 300 305 270 249 244 249 239 242 255 262 245 245 240 237 242 248
329 332 333 333 335 339 338 333 321 312 266 264 246 243 231 235 256 279 303 304 268 228 226 284 350 314 13 97 44 67 295 237 203 230 235 289 293 300 300 283 293 267 256 244 243 239 243 235 227 235 233 235 240 248
327 331 335 332 330 336 336 334 318 289 232 239 238 265 268 271 286 314 315 304 274 209 212 198 121 39 266 138 224 224 170 229 247 221 284 305 296 297 304 279 304 269 274 247 237 235 248 234 222 228 219 233 258 250
323 328 329 329 327 333 335 328 299 241 244 236 246 250 262 276 281 293 300 295 230 201 195 148 170 203 120 235 254 181 209 220 271 284 304 309 310 305 300 283 292 290 277 279 231 237 238 230 220 239 253 255 260 256
319 325 329 328 325 330 336 298 273 261 255 254 259 279 285 289 292 295 293 292 223 210 181 207 153 170 189 233 251 235 245 270 289 281 287 305 310 312 295 300 300 286 259 305 241 228 240 232 226 235 247 254 251 260
321 326 327 325 328 335 309 297 275 276 265 282 280 290 296 296 296 293 293 281 258 220 193 173 155 193 232 219 241 274 285 277 290 291 285 291 303 309 304 294 308 270 210 251 261 249 236 227 234 243 255 246 248 253
319 324 325 326 326 318 282 272 269 266 275 284 294 295 304 301 301 297 292 289 241 193 198 207 216 230 269 290 298 292 291 291 288 288 294 299 294 302 302 299 291 271 243 256 258 266 249 233 231 246 264 249 244 236
322 326 326 328 322 256 257 282 260 266 288 282 293 304 302 293 294 297 290 267 203 223 236 252 262 270 255 278 283 289 284 275 274 281 285 279 291 295 296 291 276 267 258 262 273 257 246 241 257 253 236 240 229 232
317 325 324 325 261 261 258 241 250 284 283 273 294 286 285 304 309 311 317 200 221 351 326 314 315 294 262 265 273 299 306 293 267 274 277 277 287 288 306 305 285 275 272 263 274 240 241 265 245 227 242 239 238 242
319 321 307 257 263 248 263 249 248 246 248 270 278 291 279 294 296 330 285 54 67 33 13 20 23 15 16 15 6 3 349 318 303 293 293 278 288 291 302 308 294 281 282 276 248 240 256 254 241 240 251 244 243 242
321 275 257 251 234 266 265 248 238 256 256 263 266 280 282 281 312 316 87 59 9 8 11 6 4 360 344 341 337 340 327 294 314 321 303 311 310 304 294 286 286 272 275 263 239 245 256 254 248 257 249 238 246 252
295 245 243 256 245 253 267 259 245 256 268 302 283 272 281 307 355 46 67 359 354 355 347 347 341 332 320 321 324 325 340 327 304 311 318 319 314 320 300 289 276 276 263 260 260 263 265 275 262 247 241 245 253 255
259 235 215 231 240 201 237 272 288 2 309 269 265 270 306 302 250 316 51 31 15 354 355 11 12 347 345 358 354 353 330 314 306 303 304 305 301 309 315 312 295 278 265 266 274 277 290 267 259 271 265 264 275 258
245 267 242 240 261 277 279 270 297 308 295 267 311 353 7 338 324 44 10 342 340 337 325 352 343 341 337 329 322 323 326 325 337 332 327 317 303 291 298 302 274 210 197 251 294 305 304 303 289 265 271 232 211 252
243 257 224 238 254 261 268 260 263 242 222 73 72 276 302 338 304 348 340 339 344 348 349 357 352 355 358 4 344 331 322 321 324 323 344 357 338 331 317 336 303 273 311 332 322 304 292 292 281 269 264 264 247 251
239 231 251 263 258 255 247 220 236 266 257 193 165 197 243 261 311 327 325 339 329 336 340 353 8 13 11 3 3 4 1 354 346 344 345 353 0 353 343 340 330 319 337 326 326 345 328 311 275 239 218 202 160 149
248 227 221 242 222 233 243 294 289 294 242 223 214 201 219 223 233 252 323 331 348 1 8 8 18 25 21 20 15 10 12 12 11 8 351 355 7 4 9 10 27 42 60 85 84 129 89 172 174 159 144 129 117 110
244 215 227 238 246 281 295 297 268 260 246 241 261 244 211 182 169 75 11 7 3 7 12 29 21 21 12 6 4 2 12 16 14 13 20 50 49 30 27 36 28 10 107 145 166 155 139 130 113 101 96 101 111 112
219 216 215 229 272 292 268 276 293 278 281 254 193 178 140 155 169 196 351 350 355 21 25 21 22 16 13 12 24 37 39 33 31 34 40 47 53 55 51 51 53 65 76 90 98 99 97 95 101 110 114 112 111 111
228 240 252 264 251 249 252 314 287 288 270 164 134 149 152 172 170 196 265 342 59 39 12 8 17 32 47 57 49 46 43 41 40 41 44 48 51 51 54 62 67 64 75 87 90 94 99 102 102 103 105 104 101 96